Date String (YYYY-MM-DD hh:mm:ss) UTC,Instrument flags,Ambient pressure (hPa),Sample flow (lpm),Bypass flow (lpm),Sample temperature (°C),Ambient temperature (°C),ASC tube jacket temperature (°C),LED temperature (°C),Box temperature (°C),Sample RH (%),Span deviation,Mass concentration (μg/m³),Mass concentration (μg/m³),Mass concentration (μg/m³)
DateTimeUTC,F1_M11,P_M11,Q1_M11,Q2_M11,T1_M11,T2_M11,T3_M11,T4_M11,T5_M11,U1_M11,ZSPAN_M11,X0_M11,X2_M11,X1_M11
2022-11-13 01:00:00,,0824.8,5.00,0.00,25.1,23.4,00.0,34.0,26.9,07.6,0002.5,0015.28,0007.83,0007.08
2022-11-13 01:01:00,,0824.8,5.00,0.00,25.1,23.4,00.0,34.0,26.8,07.6,0003.8,0015.35,0007.86,0007.12
2022-11-13 01:02:00,,0824.8,5.00,0.00,25.1,23.4,00.0,34.0,26.9,07.6,0004.5,0015.82,0007.88,0007.15
2022-11-13 01:03:00,,0824.8,5.00,0.00,25.1,23.3,00.0,34.0,26.8,07.5,0004.2,0016.56,0007.86,0007.16
2022-11-13 01:04:00,,0824.8,5.00,0.00,25.0,23.3,00.0,33.9,26.8,07.5,0004.0,0016.93,0007.82,0007.16
2022-11-13 01:05:00,,0824.8,4.99,0.00,25.0,23.3,00.0,33.9,26.8,07.5,0004.0,0016.60,0007.80,0007.15
2022-11-13 01:06:00,,0824.7,4.98,0.00,25.0,23.3,00.0,33.9,26.8,07.6,0004.0,0015.84,0007.85,0007.17
2022-11-13 01:07:00,,0824.7,5.00,0.00,25.0,23.3,00.0,33.9,26.8,07.6,0003.8,0015.57,0007.89,0007.20
2022-11-13 01:08:00,,0824.7,4.99,0.00,25.0,23.3,00.0,33.9,26.8,07.5,0002.8,0015.93,0007.91,0007.21
2022-11-13 01:09:00,,0824.6,5.00,0.00,25.0,23.3,00.0,33.9,26.8,07.5,0002.2,0016.50,0007.94,0007.20
2022-11-13 01:10:00,,0824.7,5.00,0.00,25.0,23.3,00.0,33.9,26.8,07.5,0002.0,0017.23,0007.94,0007.18
2022-11-13 01:11:00,,0824.8,5.00,0.00,25.0,23.3,00.0,33.9,26.7,07.5,0002.0,0017.24,0007.93,0007.16
2022-11-13 01:12:00,,0824.6,5.00,0.00,24.9,23.3,00.0,33.9,26.7,07.5,0001.2,0017.99,0007.88,0007.13
2022-11-13 01:13:00,,0824.7,5.00,0.00,24.9,23.3,00.0,33.8,26.7,07.5,0000.8,0017.42,0007.82,0007.09
2022-11-13 01:14:00,,0824.6,5.00,0.00,24.9,23.2,00.0,33.8,26.7,07.5,0001.4,0016.73,0007.82,0007.07
2022-11-13 01:15:00,,0824.7,5.00,0.00,24.9,23.2,00.0,33.8,26.7,07.5,0002.3,0016.78,0007.78,0007.04
2022-11-13 01:16:00,,0824.6,4.99,0.00,24.9,23.2,00.0,33.8,26.7,07.5,0003.2,0016.89,0007.77,0007.03
2022-11-13 01:17:00,,0824.6,5.00,0.00,24.9,23.2,00.0,33.8,26.7,07.5,0004.3,0017.01,0007.74,0006.99
2022-11-13 01:18:00,,0824.6,5.00,0.00,24.9,23.2,00.0,33.8,26.7,07.5,0004.4,0016.50,0007.72,0006.95
2022-11-13 01:19:00,,0824.6,5.00,0.00,24.9,23.2,00.0,33.8,26.7,07.6,0004.4,0016.11,0007.69,0006.93
2022-11-13 01:20:00,,0824.6,5.01,0.00,24.8,23.2,00.0,33.7,26.7,07.6,0004.6,0015.48,0007.66,0006.91
2022-11-13 01:21:00,,0824.6,5.01,0.00,24.8,23.1,00.0,33.7,26.6,07.5,0004.5,0014.17,0007.61,0006.88
2022-11-13 01:22:00,,0824.6,5.00,0.00,24.8,23.1,00.0,33.7,26.6,07.5,0004.6,0014.12,0007.59,0006.86
2022-11-13 01:23:00,,0824.5,5.00,0.00,24.8,23.1,00.0,33.7,26.6,07.5,0004.2,0014.49,0007.58,0006.84
2022-11-13 01:24:00,,0824.5,5.00,0.00,24.8,23.1,00.0,33.7,26.6,07.5,0004.0,0014.37,0007.58,0006.83
2022-11-13 01:25:00,,0824.6,5.00,0.00,24.8,23.1,00.0,33.7,26.6,07.5,0003.9,0014.76,0007.55,0006.80
2022-11-13 01:26:00,,0824.7,5.00,0.00,24.7,23.1,00.0,33.7,26.6,07.5,0004.5,0013.83,0007.51,0006.78
2022-11-13 01:27:00,,0824.5,5.01,0.00,24.7,23.0,00.0,33.7,26.6,07.5,0005.1,0013.61,0007.55,0006.78
2022-11-13 01:28:00,,0824.9,5.00,0.00,24.7,23.0,00.0,33.6,26.5,07.5,0004.9,0013.53,0007.56,0006.78
2022-11-13 01:29:00,,0824.7,5.00,0.00,24.7,23.1,00.0,33.6,26.5,07.5,0004.9,0013.46,0007.50,0006.77
2022-11-13 01:30:00,,0824.6,4.99,0.00,24.7,23.0,00.0,33.6,26.5,07.5,0005.9,0013.25,0007.49,0006.75
2022-11-13 01:31:00,,0824.5,5.00,0.00,24.7,23.0,00.0,33.6,26.5,07.6,0006.8,0013.95,0007.49,0006.73
2022-11-13 01:32:00,,0824.6,5.00,0.00,24.7,23.0,00.0,33.6,26.5,07.6,0007.4,0014.13,0007.49,0006.72
2022-11-13 01:33:00,,0824.5,5.00,0.00,24.7,23.0,00.0,33.6,26.5,07.6,0009.0,0014.21,0007.51,0006.73
2022-11-13 01:34:00,,0824.5,5.00,0.00,24.7,23.0,00.0,33.6,26.5,07.6,0008.2,0013.31,0007.52,0006.73
2022-11-13 01:35:00,,0824.5,5.00,0.00,24.6,22.9,00.0,33.6,26.4,07.5,0007.8,0013.87,0007.54,0006.72
2022-11-13 01:36:00,,0824.4,4.99,0.00,24.6,22.9,00.0,33.5,26.4,07.6,0006.9,0013.57,0007.55,0006.72
2022-11-13 01:37:00,,0824.6,5.00,0.00,24.6,22.9,00.0,33.5,26.4,07.6,0004.8,0013.62,0007.56,0006.72
2022-11-13 01:38:00,,0824.4,5.00,0.00,24.6,22.9,00.0,33.5,26.4,07.6,0002.6,0013.84,0007.51,0006.70
2022-11-13 01:39:00,,0824.4,4.99,0.00,24.6,22.9,00.0,33.5,26.4,07.7,0002.8,0014.04,0007.48,0006.69
2022-11-13 01:40:00,,0824.4,5.00,0.00,24.5,22.9,00.0,33.5,26.3,07.6,0001.8,0014.13,0007.47,0006.68
2022-11-13 01:41:00,,0824.4,5.01,0.00,24.5,22.8,00.0,33.5,26.3,07.6,0002.2,0014.05,0007.46,0006.67
2022-11-13 01:42:00,,0824.4,5.00,0.00,24.5,22.8,00.0,33.5,26.3,07.6,0002.1,0013.68,0007.43,0006.66
2022-11-13 01:43:00,,0824.4,4.99,0.00,24.5,22.8,00.0,33.4,26.3,07.6,0002.3,0014.03,0007.39,0006.65
2022-11-13 01:44:00,,0824.5,5.00,0.00,24.5,22.8,00.0,33.4,26.3,07.6,0002.0,0014.99,0007.36,0006.63
2022-11-13 01:45:00,,0824.5,5.00,0.00,24.5,22.8,00.0,33.4,26.3,07.5,0002.3,0015.37,0007.33,0006.61
2022-11-13 01:46:00,,0824.4,5.00,0.00,24.5,22.8,00.0,33.4,26.3,07.5,0002.8,0014.62,0007.30,0006.60
2022-11-13 01:47:00,,0824.4,5.01,0.00,24.4,22.7,00.0,33.4,26.2,07.5,0004.6,0014.48,0007.29,0006.60
2022-11-13 01:48:00,,0824.4,5.00,0.00,24.4,22.7,00.0,33.4,26.2,07.5,0005.7,0014.59,0007.32,0006.59
2022-11-13 01:49:00,,0824.5,4.99,0.00,24.4,22.7,00.0,33.4,26.2,07.5,0005.5,0014.54,0007.37,0006.60
2022-11-13 01:50:00,,0824.4,5.00,0.00,24.4,22.7,00.0,33.3,26.2,07.6,0005.2,0014.22,0007.35,0006.60
2022-11-13 01:51:00,,0824.4,5.00,0.00,24.4,22.7,00.0,33.3,26.1,07.6,0005.4,0014.01,0007.32,0006.58
2022-11-13 01:52:00,,0824.4,5.00,0.00,24.4,22.6,00.0,33.3,26.1,07.6,0004.8,0014.42,0007.28,0006.57
2022-11-13 01:53:00,,0824.3,4.99,0.00,24.3,22.6,00.0,33.3,26.1,07.6,0004.1,0014.56,0007.27,0006.57
2022-11-13 01:54:00,,0824.3,5.00,0.00,24.3,22.6,00.0,33.3,26.1,07.6,0004.3,0014.02,0007.31,0006.58
2022-11-13 01:55:00,,0824.3,4.99,0.00,24.3,22.6,00.0,33.3,26.1,07.6,0004.3,0012.90,0007.30,0006.57
2022-11-13 01:56:00,,0824.3,5.00,0.00,24.3,22.6,00.0,33.2,26.1,07.6,0003.2,0012.41,0007.30,0006.58
2022-11-13 01:57:00,,0824.3,5.00,0.00,24.3,22.6,00.0,33.2,26.1,07.7,0003.1,0012.53,0007.31,0006.59
2022-11-13 01:58:00,,0824.3,4.99,0.00,24.3,22.6,00.0,33.2,26.1,07.7,0002.6,0012.61,0007.29,0006.58
2022-11-13 01:59:00,,0824.3,5.01,0.00,24.3,22.5,00.0,33.2,26.0,07.7,0001.6,0012.70,0007.28,0006.57
